FW0958 Weather Reports


Display with metric or nautical units.
time (UTC)temp
F
wind
direction
speed
MPH
gust
MPH
rain 1hr
in
rain 24hr
in
rain mn
in
humidity
%
barometer
mb
20260508180644 70 315 1.0 8.0 0.00 0.00 0.00 76 1015.6
20260508180144 70 292 1.0 4.0 0.00 0.00 0.00 79 1015.6
20260508175641 69 307 1.0 4.0 0.00 0.00 0.00 79 1015.6
20260508175142 68 280 1.0 3.0 0.00 0.00 0.00 79 1015.7
20260508174642 67 293 1.0 4.0 0.00 0.00 0.00 82 1015.6
20260508174143 66 7 1.0 4.0 0.00 0.00 0.00 81 1015.9
20260508173643 66 348 0.0 4.0 0.00 0.00 0.00 81 1015.7
20260508173147 65 139 0.0 3.0 0.00 0.00 0.00 83 1015.7
20260508173143 65 139 1.0 3.0 0.00 0.00 0.00 82 1015.7
20260508172139 65 139 0.0 3.0 0.00 0.00 0.00 83 1015.7
20260508171641 65 137 0.0 3.0 0.00 0.00 0.00 83 1015.7
20260508171139 65 137 0.0 3.0 0.00 0.00 0.00 84 1015.7
20260508170641 64 140 0.0 3.0 0.00 0.00 0.00 84 1015.9
20260508170141 64 141 0.0 1.0 0.00 0.00 0.00 85 1015.8
20260508165641 63 141 0.0 2.0 0.00 0.00 0.00 86 1015.9
20260508165141 63 141 0.0 2.0 0.00 0.00 0.00 86 1015.7
20260508164646 63 141 0.0 3.0 0.00 0.00 0.00 87 1016.0
20260508164641 63 140 0.0 3.0 0.00 0.00 0.00 87 1015.8
20260508163640 62 141 0.0 3.0 0.00 0.00 0.00 87 1015.9
20260508163145 62 143 1.0 4.0 0.00 0.00 0.00 88 1016.0
20260508163140 62 142 0.0 2.0 0.00 0.00 0.00 87 1015.9
20260508162139 62 144 1.0 4.0 0.00 0.00 0.00 88 1016.0
20260508161646 62 153 0.0 3.0 0.00 0.00 0.00 88 1016.1
20260508161642 62 151 1.0 3.0 0.00 0.00 0.00 88 1016.1
20260508160639 62 187 0.0 0.0 0.00 0.00 0.00 88 1016.0
20260508160140 61 188 0.0 0.0 0.00 0.00 0.00 88 1016.1
20260508155641 61 192 0.0 0.0 0.00 0.00 0.00 88 1016.0
20260508155141 61 192 0.0 0.0 0.00 0.00 0.00 89 1016.2
20260508154637 61 193 0.0 0.0 0.00 0.00 0.00 89 1016.1
20260508154137 61 193 0.0 0.0 0.00 0.00 0.00 89 1016.0
20260508153637 61 128 0.0 0.0 0.00 0.00 0.00 89 1016.0
20260508153138 61 128 0.0 0.0 0.00 0.00 0.00 89 1015.9
20260508152639 61 79 0.0 0.0 0.00 0.00 0.00 89 1016.0
20260508152138 61 60 0.0 0.0 0.00 0.00 0.00 89 1016.1
20260508151636 61 60 0.0 0.0 0.00 0.00 0.00 89 1016.1
20260508151137 61 60 0.0 0.0 0.00 0.00 0.00 89 1016.1
20260508150635 61 60 0.0 0.0 0.00 0.00 0.00 89 1016.1
20260508150136 60 60 0.0 0.0 0.00 0.00 0.00 90 1016.1
20260508145635 60 60 0.0 0.0 0.00 0.00 0.00 90 1016.1
20260508145135 60 60 0.0 0.0 0.00 0.00 0.00 90 1016.0
20260508144635 60 211 0.0 0.0 0.00 0.00 0.00 90 1016.0
20260508144142 60 211 0.0 0.0 0.00 0.00 0.00 90 1015.9
20260508144135 60 211 0.0 0.0 0.00 0.00 0.00 90 1016.1
20260508143635 60 211 0.0 0.0 0.00 0.00 0.00 90 1016.0
20260508142633 60 212 0.0 0.0 0.00 0.00 0.00 90 1015.9
20260508142134 60 212 0.0 0.0 0.00 0.00 0.00 90 1016.0
20260508141633 60 212 0.0 0.0 0.00 0.00 0.00 90 1015.9
20260508141134 60 212 0.0 0.0 0.00 0.00 0.00 90 1015.9
20260508140634 60 212 0.0 0.0 0.00 0.00 0.00 90 1015.9
20260508140134 60 212 0.0 0.0 0.00 0.00 0.00 90 1015.9
20260508135633 60 212 0.0 0.0 0.00 0.00 0.00 90 1015.8
20260508135133 60 212 0.0 0.0 0.00 0.00 0.00 90 1015.8
20260508134634 60 212 0.0 0.0 0.00 0.00 0.00 90 1015.8
20260508134133 60 212 0.0 0.0 0.00 0.00 0.00 90 1015.7
20260508133631 60 212 0.0 0.0 0.00 0.00 0.00 90 1015.7
20260508133131 60 213 1.0 3.0 0.00 0.00 0.00 90 1015.7
20260508132631 60 213 1.0 3.0 0.00 0.00 0.00 90 1015.6
20260508132130 60 214 1.0 3.0 0.00 0.00 0.00 90 1015.6
20260508131636 60 216 0.0 1.0 0.00 0.00 0.00 90 1015.5
20260508131631 60 214 0.0 3.0 0.00 0.00 0.00 90 1015.5
20260508131250 60 216 0.0 1.0 0.00 0.00 0.00 90 1015.5
20260508130137 60 216 0.0 1.0 0.00 0.00 0.00 90 1015.5
20260508130133 60 216 0.0 1.0 0.00 0.00 0.00 90 1015.5
20260508125132 60 216 0.0 2.0 0.00 0.00 0.00 90 1015.4
20260508124632 60 216 0.0 2.0 0.00 0.00 0.00 90 1015.4
20260508124136 60 216 0.0 2.0 0.00 0.00 0.00 90 1015.4
20260508124129 60 216 0.0 1.0 0.00 0.00 0.00 90 1015.4
20260508123630 60 216 0.0 1.0 0.00 0.00 0.00 90 1015.5
20260508122630 60 216 0.0 2.0 0.00 0.00 0.00 90 1015.3
20260508122130 60 216 0.0 2.0 0.00 0.00 0.00 90 1015.3
20260508121630 60 216 0.0 2.0 0.00 0.00 0.00 90 1015.3
20260508121130 60 217 0.0 3.0 0.00 0.00 0.00 90 1015.4
20260508120629 60 212 0.0 3.0 0.00 0.00 0.00 90 1015.3
20260508120129 60 212 0.0 3.0 0.00 0.00 0.00 90 1015.3
20260508115636 60 214 0.0 2.0 0.00 0.00 0.00 90 1015.4
20260508115629 60 213 0.0 1.0 0.00 0.00 0.00 90 1015.4
20260508115127 60 214 0.0 1.0 0.00 0.00 0.00 89 1015.4
20260508114752 60 214 0.0 2.0 0.00 0.00 0.00 89 1015.2
20260508114629 60 214 0.0 1.0 0.00 0.00 0.00 90 1015.3
20260508113128 60 214 0.0 1.0 0.00 0.00 0.00 89 1015.4
20260508112626 60 214 0.0 1.0 0.00 0.00 0.00 89 1015.2
20260508112132 60 214 0.0 4.0 0.00 0.00 0.00 89 1015.3
20260508112127 60 214 0.0 2.0 0.00 0.00 0.00 89 1015.3
20260508111743 60 214 0.0 4.0 0.00 0.00 0.00 89 1015.4
20260508110628 60 212 0.0 1.0 0.00 0.00 0.00 89 1015.3
20260508110125 60 212 0.0 1.0 0.00 0.00 0.00 89 1015.3
20260508105626 61 212 0.0 2.0 0.00 0.00 0.00 89 1015.3
20260508105126 61 212 0.0 2.0 0.00 0.00 0.00 89 1015.3
20260508104627 61 212 0.0 4.0 0.00 0.00 0.00 89 1015.3
20260508104126 61 211 0.0 4.0 0.00 0.00 0.00 89 1015.4
20260508103624 61 208 0.0 3.0 0.00 0.00 0.00 89 1015.4
20260508103131 61 207 0.0 1.0 0.00 0.00 0.00 89 1015.5
20260508103126 61 208 0.0 3.0 0.00 0.00 0.00 89 1015.3
20260508102624 61 207 0.0 1.0 0.00 0.00 0.00 89 1015.5
20260508102124 61 207 0.0 1.0 0.00 0.00 0.00 89 1015.5
20260508101123 61 207 0.0 1.0 0.00 0.00 0.00 89 1015.5
20260508100624 61 207 0.0 1.0 0.00 0.00 0.00 89 1015.6
20260508100123 61 207 0.0 1.0 0.00 0.00 0.00 89 1015.5
20260508095628 61 207 0.0 2.0 0.00 0.00 0.00 89 1015.4
20260508095624 61 207 0.0 2.0 0.00 0.00 0.00 89 1015.4
20260508094624 61 207 0.0 2.0 0.00 0.00 0.00 89 1015.4
20260508094128 61 207 0.0 2.0 0.00 0.00 0.00 89 1015.4
20260508094122 61 207 0.0 2.0 0.00 0.00 0.00 89 1015.4
20260508093122 61 206 0.0 0.0 0.00 0.00 0.00 88 1015.5
20260508092624 61 206 0.0 1.0 0.00 0.00 0.00 89 1015.5
20260508092123 61 206 0.0 2.0 0.00 0.00 0.00 89 1015.5
20260508091624 61 206 0.0 2.0 0.00 0.00 0.00 89 1015.4
20260508091123 61 206 0.0 2.0 0.00 0.00 0.00 89 1015.4
20260508090628 61 205 0.0 2.0 0.00 0.00 0.00 89 1015.5
20260508090624 61 205 0.0 2.0 0.00 0.00 0.00 89 1015.4
20260508090240 61 205 0.0 2.0 0.00 0.00 0.00 89 1015.6
20260508085122 61 205 0.0 2.0 0.00 0.00 0.00 89 1015.6
20260508084623 61 204 0.0 1.0 0.00 0.00 0.00 89 1015.6
20260508084128 61 204 0.0 2.0 0.00 0.00 0.00 88 1015.7
20260508084124 61 204 0.0 2.0 0.00 0.00 0.00 88 1015.6
20260508083121 61 233 0.0 1.0 0.00 0.00 0.00 89 1015.7
20260508082622 61 233 0.0 1.0 0.00 0.00 0.00 89 1015.8
20260508082120 61 233 0.0 0.0 0.00 0.00 0.00 89 1015.9
20260508081622 61 233 0.0 1.0 0.00 0.00 0.00 89 1015.9
20260508081127 61 233 0.0 1.0 0.00 0.00 0.00 88 1016.0
20260508081122 61 233 0.0 1.0 0.00 0.00 0.00 89 1015.9
20260508080120 61 233 0.0 1.0 0.00 0.00 0.00 89 1016.0
20260508075619 61 233 0.0 1.0 0.00 0.00 0.00 88 1016.0
20260508075118 61 233 0.0 1.0 0.00 0.00 0.00 88 1016.0
20260508074620 61 233 0.0 3.0 0.00 0.00 0.00 88 1016.1
20260508074127 61 259 0.0 1.0 0.00 0.00 0.00 88 1016.0
20260508074116 61 233 1.0 3.0 0.00 0.00 0.00 88 1016.0
20260508073618 61 233 0.0 3.0 0.00 0.00 0.00 88 1016.0
20260508073117 61 233 0.0 3.0 0.00 0.00 0.00 88 1016.1
20260508072120 61 261 1.0 4.0 0.00 0.00 0.00 88 1016.1
20260508072116 61 261 0.0 2.0 0.00 0.00 0.00 88 1016.1
20260508071116 61 261 1.0 4.0 0.00 0.00 0.00 88 1016.2
20260508070617 61 271 0.0 3.0 0.00 0.00 0.00 88 1016.3
20260508070122 61 269 0.0 0.0 0.00 0.00 0.00 89 1016.4
20260508070116 61 272 0.0 2.0 0.00 0.00 0.00 89 1016.3
20260508065121 61 269 0.0 2.0 0.00 0.00 0.00 89 1016.4
20260508065116 61 269 0.0 1.0 0.00 0.00 0.00 88 1016.3
20260508064121 61 264 0.0 2.0 0.00 0.00 0.00 89 1016.4
20260508064116 61 269 0.0 2.0 0.00 0.00 0.00 89 1016.3
20260508063117 61 264 0.0 2.0 0.00 0.00 0.00 89 1016.4
20260508062616 61 264 0.0 2.0 0.00 0.00 0.00 89 1016.4
20260508062115 61 258 0.0 0.0 0.00 0.00 0.00 89 1016.5
20260508061615 61 258 0.0 0.0 0.00 0.00 0.00 89 1016.5
20260508061121 61 292 1.0 4.0 0.00 0.00 0.00 89 1016.5
20260508061116 61 257 0.0 2.0 0.00 0.00 0.00 89 1016.5
20260508060617 61 292 1.0 3.0 0.00 0.00 0.00 89 1016.4
20260508055616 61 299 0.0 4.0 0.00 0.00 0.00 89 1016.5
20260508055117 61 349 0.0 1.0 0.00 0.00 0.00 89 1016.5
20260508054616 61 349 0.0 2.0 0.00 0.00 0.00 89 1016.4
20260508054115 61 349 0.0 2.0 0.00 0.00 0.00 89 1016.3
20260508053616 60 356 0.0 2.0 0.00 0.00 0.00 89 1016.2
20260508053121 60 357 0.0 1.0 0.00 0.00 0.00 89 1016.3
20260508053115 60 356 0.0 1.0 0.00 0.00 0.00 89 1016.3
20260508052117 60 357 0.0 1.0 0.00 0.00 0.00 89 1016.3
20260508051616 60 11 0.0 1.0 0.00 0.00 0.00 89 1016.3
20260508051116 60 11 0.0 1.0 0.00 0.00 0.00 89 1016.4
20260508050616 60 11 0.0 2.0 0.00 0.00 0.00 89 1016.4
20260508050115 60 18 1.0 3.0 0.00 0.00 0.00 88 1016.3
20260508045615 60 20 1.0 3.0 0.00 0.00 0.00 88 1016.3
20260508045114 60 14 0.0 3.0 0.00 0.00 0.00 88 1016.2
20260508044614 60 14 1.0 5.0 0.00 0.00 0.00 88 1016.2
20260508044113 60 14 1.0 5.0 0.00 0.00 0.00 87 1016.1
20260508043613 60 3 0.0 3.0 0.00 0.00 0.00 87 1015.9
20260508043119 61 328 0.0 3.0 0.00 0.00 0.00 87 1015.9
20260508043115 60 330 0.0 2.0 0.00 0.00 0.00 87 1015.9
20260508042737 61 327 1.0 4.0 0.00 0.00 0.00 87 1015.7
20260508041613 61 318 1.0 4.0 0.00 0.00 0.00 86 1015.8
20260508041115 61 16 1.0 4.0 0.00 0.00 0.00 86 1015.6
20260508040613 61 357 1.0 5.0 0.00 0.00 0.00 86 1015.7
20260508040113 61 24 1.0 5.0 0.00 0.00 0.00 85 1015.5
20260508035611 61 23 0.0 4.0 0.00 0.00 0.00 85 1015.4
20260508035113 62 348 0.0 0.0 0.00 0.00 0.00 85 1015.4
20260508034613 62 348 0.0 0.0 0.00 0.00 0.00 84 1015.2
20260508034111 62 348 0.0 0.0 0.00 0.00 0.00 84 1015.2
20260508033611 62 358 0.0 0.0 0.00 0.00 0.00 84 1015.1
20260508033118 62 14 0.0 0.0 0.00 0.00 0.00 83 1014.8
20260508033113 62 14 0.0 0.0 0.00 0.00 0.00 84 1014.9
20260508032111 63 13 0.0 2.0 0.00 0.00 0.00 83 1014.9
20260508031611 63 20 0.0 2.0 0.00 0.00 0.00 83 1014.8
20260508031116 63 18 2.0 5.0 0.00 0.00 0.00 82 1014.6
20260508031110 63 20 1.0 4.0 0.00 0.00 0.00 82 1014.7
20260508030115 64 359 2.0 5.0 0.00 0.00 0.00 81 1014.4
20260508030109 64 340 2.0 5.0 0.00 0.00 0.00 81 1014.6
20260508025109 64 22 2.0 6.0 0.00 0.00 0.00 80 1014.4
20260508024609 64 351 2.0 7.0 0.00 0.00 0.00 80 1014.5
20260508024109 65 25 1.0 7.0 0.00 0.00 0.00 79 1014.2
20260508023609 65 4 1.0 5.0 0.00 0.00 0.00 79 1014.2
20260508023114 66 324 2.0 5.0 0.00 0.00 0.00 78 1014.1
20260508023109 65 319 1.0 5.0 0.00 0.00 0.00 78 1014.2
20260508022109 66 327 2.0 7.0 0.00 0.00 0.00 77 1014.1
20260508021614 67 346 1.0 5.0 0.00 0.00 0.00 76 1014.0
20260508021608 67 29 1.0 7.0 0.00 0.00 0.00 77 1014.1
20260508020607 67 29 1.0 5.0 0.00 0.00 0.00 75 1014.1
20260508020114 68 347 1.0 7.0 0.00 0.00 0.00 74 1014.0
20260508020109 68 29 1.0 7.0 0.00 0.00 0.00 74 1014.0
20260508015108 69 325 1.0 7.0 0.00 0.00 0.00 73 1014.1
20260508014608 69 12 1.0 5.0 0.00 0.00 0.00 72 1014.0
20260508014107 69 311 1.0 5.0 0.00 0.00 0.00 72 1013.9
20260508013608 70 18 1.0 5.0 0.00 0.00 0.00 71 1013.9
20260508013111 71 327 1.0 6.0 0.00 0.00 0.00 70 1013.8
20260508013105 71 330 1.0 4.0 0.00 0.00 0.00 71 1013.8
20260508012105 71 325 1.0 6.0 0.00 0.00 0.00 70 1013.9
20260508011606 72 334 1.0 3.0 0.00 0.00 0.00 69 1013.9
20260508011111 72 25 1.0 5.0 0.00 0.00 0.00 69 1013.9
20260508011105 72 340 1.0 4.0 0.00 0.00 0.00 69 1013.9
20260508010605 72 4 1.0 5.0 0.00 0.00 0.00 69 1013.9
20260508005605 73 322 1.0 5.0 0.00 0.00 0.00 68 1014.0
20260508005110 73 334 1.0 7.0 0.00 0.00 0.00 68 1013.8
20260508005105 73 331 1.0 7.0 0.00 0.00 0.00 68 1013.8
20260508004105 73 314 1.0 4.0 0.00 0.00 0.00 68 1013.7
20260508003603 73 4 1.0 6.0 0.00 0.00 0.00 69 1013.8
20260508003103 73 343 1.0 6.0 0.00 0.00 0.00 68 1013.8
20260508002604 73 336 2.0 7.0 0.00 0.00 0.00 68 1013.8
20260508002103 73 342 2.0 8.0 0.00 0.00 0.00 68 1013.8
20260508001602 74 23 2.0 8.0 0.00 0.00 0.00 67 1013.8
20260508001109 74 318 2.0 7.0 0.00 0.00 0.00 67 1013.8
20260508001104 74 334 1.0 7.0 0.00 0.00 0.00 67 1013.8
20260507235604 74 338 2.0 8.0 0.00 0.00 0.00 66 1013.8
20260507235108 74 325 2.0 9.0 0.00 0.00 0.00 67 1013.7
20260507235103 74 340 2.0 9.0 0.00 0.00 0.00 67 1013.8
20260507234104 74 338 2.0 8.0 0.00 0.00 0.00 66 1013.8
20260507233602 74 351 3.0 10.0 0.00 0.00 0.00 66 1013.8
20260507233102 74 0 3.0 10.0 0.00 0.00 0.00 66 1013.8
20260507232602 74 324 2.0 8.0 0.00 0.00 0.00 66 1013.8
20260507232108 75 18 3.0 11.0 0.00 0.00 0.00 66 1013.8
20260507232103 74 349 2.0 11.0 0.00 0.00 0.00 66 1013.7
20260507231110 75 22 3.0 9.0 0.00 0.00 0.00 65 1013.8
20260507231104 75 29 2.0 6.0 0.00 0.00 0.00 65 1013.7
20260507230602 75 324 2.0 8.0 0.00 0.00 0.00 66 1013.7
20260507225602 75 318 2.0 9.0 0.00 0.00 0.00 65 1013.8
20260507225102 75 320 3.0 9.0 0.00 0.00 0.00 65 1013.8
20260507224603 76 326 3.0 8.0 0.00 0.00 0.00 64 1013.9
20260507224103 76 62 2.0 11.0 0.00 0.00 0.00 65 1013.7
20260507223602 75 320 2.0 11.0 0.00 0.00 0.00 65 1013.9
20260507223108 76 341 2.0 9.0 0.00 0.00 0.00 65 1013.9
20260507223103 76 327 2.0 8.0 0.00 0.00 0.00 64 1013.9
20260507222105 76 47 3.0 9.0 0.00 0.00 0.00 65 1014.0
20260507221603 76 311 3.0 11.0 0.00 0.00 0.00 64 1014.0
20260507221104 76 305 3.0 11.0 0.00 0.00 0.00 65 1014.1
20260507220603 76 338 4.0 10.0 0.00 0.00 0.00 64 1014.0
20260507220100 76 310 3.0 10.0 0.00 0.00 0.00 64 1014.1
20260507215608 76 322 3.0 10.0 0.00 0.00 0.00 63 1014.2
20260507215602 77 301 3.0 11.0 0.00 0.00 0.00 63 1014.1
20260507215102 76 54 3.0 11.0 0.00 0.00 0.00 64 1014.4
20260507214101 76 330 3.0 9.0 0.00 0.00 0.00 63 1014.4
20260507213601 77 348 3.0 12.0 0.00 0.00 0.00 64 1014.4
20260507213108 77 107 3.0 11.0 0.00 0.00 0.00 62 1014.5
20260507213103 77 309 3.0 12.0 0.00 0.00 0.00 64 1014.5
20260507212105 78 280 2.0 11.0 0.00 0.00 0.00 62 1014.4
20260507212100 77 15 3.0 11.0 0.00 0.00 0.00 62 1014.4
20260507211058 77 322 2.0 11.0 0.00 0.00 0.00 63 1014.5
20260507210559 78 12 3.0 11.0 0.00 0.00 0.00 63 1014.5
20260507210105 78 330 3.0 10.0 0.00 0.00 0.00 62 1014.8
20260507210058 77 19 3.0 11.0 0.00 0.00 0.00 62 1014.7
20260507205722 78 276 3.0 9.0 0.00 0.00 0.00 62 1014.9
20260507205559 77 15 4.0 10.0 0.00 0.00 0.00 62 1014.8
20260507204100 78 0 3.0 9.0 0.00 0.00 0.00 62 1014.7
20260507203603 77 299 3.0 10.0 0.00 0.00 0.00 63 1014.8
20260507203558 77 16 3.0 9.0 0.00 0.00 0.00 63 1014.7
20260507203223 78 34 4.0 11.0 0.00 0.00 0.00 62 1014.8
20260507203219 78 328 3.0 11.0 0.00 0.00 0.00 62 1014.8
20260507201557 78 293 4.0 10.0 0.00 0.00 0.00 62 1014.7
20260507201056 78 347 3.0 10.0 0.00 0.00 0.00 62 1014.7
20260507200602 77 359 2.0 10.0 0.00 0.00 0.00 62 1014.7
20260507200557 78 330 2.0 8.0 0.00 0.00 0.00 61 1014.8
20260507200217 78 353 2.0 10.0 0.00 0.00 0.00 62 1014.8
20260507195056 78 359 2.0 9.0 0.00 0.00 0.00 62 1014.8
20260507194556 77 326 2.0 9.0 0.00 0.00 0.00 63 1014.7
20260507194056 77 330 2.0 8.0 0.00 0.00 0.00 63 1014.7
20260507193556 78 351 3.0 10.0 0.00 0.00 0.00 61 1014.8
20260507193101 78 356 2.0 10.0 0.00 0.00 0.00 62 1014.8
20260507193056 78 313 3.0 10.0 0.00 0.00 0.00 62 1014.8
20260507192054 78 298 2.0 9.0 0.00 0.00 0.00 63 1014.9
20260507191554 78 353 3.0 8.0 0.00 0.00 0.00 63 1014.9
20260507191056 78 336 4.0 10.0 0.00 0.00 0.00 63 1015.0
20260507190555 77 280 5.0 10.0 0.00 0.00 0.00 63 1015.0
20260507190056 78 329 4.0 10.0 0.00 0.00 0.00 63 1014.9
20260507185054 77 291 4.0 9.0 0.00 0.00 0.00 62 1015.1
20260507184555 77 305 3.0 10.0 0.00 0.00 0.00 63 1015.2
20260507184054 77 305 2.0 10.0 0.00 0.00 0.00 63 1015.3
20260507183554 75 231 2.0 6.0 0.00 0.00 0.00 63 1015.3
20260507183054 77 313 2.0 7.0 0.00 0.00 0.00 62 1015.4
20260507182554 76 232 2.0 7.0 0.00 0.00 0.00 63 1015.5
20260507182052 76 239 2.0 9.0 0.00 0.00 0.00 62 1015.5
20260507181554 75 309 2.0 9.0 0.00 0.00 0.00 64 1015.5
20260507181051 75 323 2.0 7.0 0.00 0.00 0.00 62 1015.6